Regional Weather Roundup
Issued by NWS

Home | Current Version | Previous Version | Graphics & Text | Print | Product List | Glossary On
Versions: 1 2 3 4 5 6 7 8 9 10 11 12 13 14 15 16 17 18 19 20 21 22 23 24 25 26 27 28 29 30 31 32 33 34 35 36 37 38 39 40 41 42 43 44 45 46 47 48 49 50
000
ASUS43 KFSD 251702
RWRSD

WEATHER ROUNDUP FOR SOUTH DAKOTA
NATIONAL WEATHER SERVICE SIOUX FALLS SD
1100 AM CST THU DEC 25 2014

NOTE: "FAIR" INDICATES FEW OR NO CLOUDS BELOW 12,000 FEET WITH NO
SIGNIFICANT WEATHER AND/OR OBSTRUCTIONS TO VISIBILITY.


SDZ001>005-009-010-012>017-251800-
NORTHWEST AND NORTH CENTRAL SOUTH DAKOTA

CITY           SKY/WX    TMP DP  RH WIND       PRES   REMARKS
FAITH            N/A     28  22  78 N16       29.75R WCI  16
MOBRIDGE       CLOUDY    30  24  78 N15       29.74R WCI  19
$$

SDZ012>016-024>037-041>051-057-063-072>074-251800-
SOUTHWEST AND SOUTH CENTRAL SOUTH DAKOTA

CITY           SKY/WX    TMP DP  RH WIND       PRES   REMARKS
RAPID CTY ARPT SNOW      29  27  92 N26       29.69R VSB 1/2 WCI  14
PIERRE         LGT SNOW  31  29  92 N13       29.72R FOG     WCI  21
CUSTER         LGT SNOW  24  18  77 NE12G23   29.59R WCI  13
ELLSWORTH AFB  FLURRIES  29  28  96 N22       29.71R WCI  15
PHILIP         LGT SNOW  32  28  85 N17G23    29.73R FOG     WCI  21
PINE RIDGE     LGT SNOW  31  27  85 NE18G25   29.64R FOG     WCI  19
WINNER         CLOUDY    33  30  88 N9        29.67R FOG     WCI  25
$$

SDZ004>011-016>023-039-040-251800-
NORTHEAST SOUTH DAKOTA

CITY           SKY/WX    TMP DP  RH WIND       PRES   REMARKS
ABERDEEN       CLOUDY    29  24  82 N12       29.75R WCI  19
WATERTOWN      LGT SNOW  31  28  89 NE6       29.68R FOG     WCI  25
$$

SDZ017-020-022-023-036>040-048>070-251800-
SOUTHEAST SOUTH DAKOTA

CITY           SKY/WX    TMP DP  RH WIND       PRES   REMARKS
SIOUX FALLS    PTSUNNY   32  27  81 NE10      29.65S WCI  24
HURON          LGT SNOW  30  28  92 N10       29.70R FOG     WCI  21
CHAMBERLAIN    CLOUDY    32  29  91 NE9       29.68R WCI  24
MITCHELL       CLOUDY    32  28  85 N8        29.69R WCI  25
YANKTON        MOSUNNY   32  27  80 E6        29.65R WCI  26
$$

ABBREVIATIONS USED IN REMARKS
   TC - TEMPERATURE IN CELSIUS
  WCI - WIND CHILL INDEX
   HX - HEAT INDEX
  VSB - VISIBILITY



USA.gov is the U.S. government's official web portal to all federal, state and local government web resources and services.